This demonstration page uses our WeatherBlox Daily Observations layout. Learn more.

Left ArrowRight Arrow

Hourly Observations for May 10, 2015

Temp ( °F °C ) Dew Point ( °F °C ) Humidity (%) Winds ( mph kmh ) Pressure ( in mb ) Visibility ( mi km ) Precip ( " mm )
12:51 am 00:51 Clear 53 11.7 25 -3.9 34 34 WNW 8 13 29.88 1012 10 16 0.00 0.00
1:51 am 01:51 Clear 53 11.7 26 -3.3 35 35 NW 10 17 29.86 1011 10 16 0.00 0.00
2:51 am 02:51 Clear 49 9.4 26 -3.3 41 41 NW 10 17 29.85 1011 10 16 0.00 0.00
3:51 am 03:51 Clear 49 9.4 26 -3.3 41 41 N 5 7 29.86 1011 10 16 0.00 0.00
4:51 am 04:51 Clear 50 10 27 -2.8 41 41 Calm 29.87 1012 10 16 0.00 0.00
5:51 am 05:51 Sunny 46 7.8 25 -3.9 44 44 SE 5 7 29.90 1013 10 16 0.00 0.00
6:51 am 06:51 Sunny 51 10.6 26 -3.3 38 38 Calm 29.92 1013 10 16 0.00 0.00
7:51 am 07:51 Sunny 57 13.9 28 -2.2 33 33 SSE 3 6 29.91 1013 10 16 0.00 0.00
8:51 am 08:51 Sunny 63 17.2 29 -1.7 28 28 VRB 5 7 29.91 1013 10 16 0.00 0.00
9:51 am 09:51 Sunny 69 20.6 30 -1.1 23 23 WNW 15 24 29.88 1012 10 16 0.00 0.00
10:51 am 10:51 Sunny 72 22.2 31 -0.6 22 22 WNW 14 22 29.86 1011 10 16 0.00 0.00
11:51 am 11:51 Sunny 73 22.8 31 -0.6 21 21 W 10 17 29.85 1011 10 16 0.00 0.00
12:51 pm 12:51 Sunny 77 25 30 -1.1 18 18 NNW 10 17 29.83 1010 10 16 0.00 0.00
1:51 pm 13:51 Sunny 77 25 31 -0.6 18 18 W 13 20 29.82 1010 10 16 0.00 0.00
2:51 pm 14:51 Sunny 80 26.7 31 -0.6 17 17 WNW 14 22 29.80 1009 10 16 0.00 0.00
3:51 pm 15:51 Sunny 79 26.1 29 -1.7 16 16 W 13 20 29.79 1009 10 16 0.00 0.00
4:51 pm 16:51 Sunny 79 26.1 28 -2.2 15 15 WNW 15 24 29.78 1009 10 16 0.00 0.00
5:51 pm 17:51 Sunny 78 25.6 28 -2.2 16 16 NW 13 20 29.80 1009 10 16 0.00 0.00
6:51 pm 18:51 Sunny 75 23.9 28 -2.2 18 18 WNW 16 26 29.81 1010 10 16 0.00 0.00
7:51 pm 19:51 Clear 71 21.7 28 -2.2 20 20 WNW 13 20 29.83 1010 10 16 0.00 0.00
8:51 pm 20:51 Clear 68 20 28 -2.2 22 22 NNW 12 19 29.85 1011 10 16 0.00 0.00
9:51 pm 21:51 Clear 66 18.9 28 -2.2 24 24 NNW 10 17 29.86 1011 10 16 0.00 0.00
10:51 pm 22:51 Clear 63 17.2 29 -1.7 28 28 NNW 8 13 29.87 1012 10 16 0.00 0.00
11:51 pm 23:51 Clear 59 15 28 -2.2 31 31 NNW 5 7 29.89 1012 10 16 0.00 0.00

Powered by AerisWeather